TimeEDT,TemperatureF,Dew PointF,Humidity,Sea Level PressureIn,VisibilityMPH,Wind Direction,Wind SpeedMPH,Gust SpeedMPH,PrecipitationIn,Events,Conditions,WindDirDegrees,DateUTC
12:53 AM,72.0,69.1,91,30.07,3.0,South,8.1,-,N/A,,Overcast,180,2013-09-11 04:53:00
1:53 AM,71.1,69.1,93,30.06,3.0,South,6.9,-,N/A,,Partly Cloudy,180,2013-09-11 05:53:00
2:38 AM,71.6,69.8,94,30.02,1.0,South,5.8,-,N/A,,Mostly Cloudy,190,2013-09-11 06:38:00
2:53 AM,70.0,69.1,97,30.06,1.0,South,4.6,-,N/A,,Mostly Cloudy,180,2013-09-11 06:53:00
3:53 AM,70.0,69.1,97,30.05,1.0,SSW,4.6,-,N/A,,Overcast,200,2013-09-11 07:53:00
4:35 AM,69.8,69.8,100,30.02,0.8,South,4.6,-,N/A,,Overcast,190,2013-09-11 08:35:00
4:53 AM,70.0,69.1,97,30.05,0.5,Calm,Calm,-,N/A,Fog,Fog,0,2013-09-11 08:53:00
5:13 AM,69.8,69.8,100,30.02,0.2,SW,4.6,-,N/A,Fog,Fog,220,2013-09-11 09:13:00
5:53 AM,69.1,68.0,96,30.06,0.1,Calm,Calm,-,N/A,Fog,Fog,0,2013-09-11 09:53:00
6:14 AM,69.8,69.8,100,30.03,0.2,Calm,Calm,-,N/A,Fog,Fog,0,2013-09-11 10:14:00
6:31 AM,69.8,69.8,100,30.03,0.1,Calm,Calm,-,N/A,Fog,Fog,0,2013-09-11 10:31:00
6:53 AM,69.1,69.1,100,30.07,0.1,Calm,Calm,-,N/A,Fog,Fog,0,2013-09-11 10:53:00
7:26 AM,69.8,69.8,100,30.04,0.1,Calm,Calm,-,N/A,Fog,Fog,0,2013-09-11 11:26:00
7:36 AM,69.8,69.8,100,30.04,0.1,Calm,Calm,-,N/A,Fog,Fog,0,2013-09-11 11:36:00
7:53 AM,69.1,69.1,100,30.08,0.1,Calm,Calm,-,N/A,Fog,Fog,0,2013-09-11 11:53:00
8:06 AM,69.8,69.8,100,30.04,0.2,Calm,Calm,-,N/A,Fog,Fog,0,2013-09-11 12:06:00
8:20 AM,69.8,69.8,100,30.04,1.0,Calm,Calm,-,N/A,,Scattered Clouds,0,2013-09-11 12:20:00
8:21 AM,69.8,69.8,100,30.04,1.0,Calm,Calm,-,N/A,,Partly Cloudy,0,2013-09-11 12:21:00
8:53 AM,73.0,70.0,90,30.07,1.0,Calm,Calm,-,N/A,,Clear,0,2013-09-11 12:53:00
8:58 AM,73.4,69.8,88,30.04,7.0,Calm,Calm,-,N/A,,Clear,0,2013-09-11 12:58:00
9:53 AM,80.1,72.0,76,30.06,10.0,Variable,3.5,-,N/A,,Clear,0,2013-09-11 13:53:00
10:53 AM,87.1,73.0,63,30.04,10.0,SW,4.6,-,N/A,,Clear,230,2013-09-11 14:53:00
11:53 AM,90.0,72.0,55,30.03,10.0,SSW,10.4,-,N/A,,Clear,200,2013-09-11 15:53:00
12:53 PM,91.0,73.0,55,30.02,10.0,South,11.5,17.3,N/A,,Clear,190,2013-09-11 16:53:00
1:53 PM,93.9,71.1,47,30.00,10.0,SW,10.4,17.3,N/A,,Clear,220,2013-09-11 17:53:00
2:53 PM,95.0,70.0,44,29.98,10.0,SW,5.8,-,N/A,,Clear,220,2013-09-11 18:53:00
3:53 PM,93.9,71.1,47,29.97,10.0,SSW,10.4,-,N/A,,Partly Cloudy,200,2013-09-11 19:53:00
4:53 PM,93.9,71.1,47,29.95,10.0,SW,9.2,-,N/A,,Clear,220,2013-09-11 20:53:00
5:53 PM,91.9,71.1,50,29.94,10.0,SSW,8.1,17.3,N/A,,Clear,210,2013-09-11 21:53:00
6:53 PM,89.1,71.1,55,29.95,10.0,SW,4.6,-,N/A,,Clear,230,2013-09-11 22:53:00
7:53 PM,86.0,71.1,61,29.97,10.0,SSW,3.5,-,N/A,,Clear,200,2013-09-11 23:53:00
8:53 PM,84.0,71.1,65,29.96,10.0,South,8.1,-,N/A,,Clear,190,2013-09-12 00:53:00
9:53 PM,82.9,66.0,56,30.00,10.0,West,13.8,26.5,0.00,Rain,Light Rain,270,2013-09-12 01:53:00
10:00 PM,82.4,66.2,58,29.98,10.0,WNW,9.2,25.3,0.00,Rain,Light Rain,290,2013-09-12 02:00:00
10:10 PM,80.6,64.4,58,30.00,10.0,WNW,10.4,19.6,0.00,Rain-Thunderstorm,Light Rain,290,2013-09-12 02:10:00
10:23 PM,80.6,66.2,61,30.01,4.0,WNW,15.0,18.4,0.00,Rain-Thunderstorm,Light Thunderstorms and Rain,290,2013-09-12 02:23:00
10:28 PM,78.8,66.2,65,30.01,2.0,WNW,9.2,23.0,0.05,Rain-Thunderstorm,Thunderstorms and Rain,290,2013-09-12 02:28:00
10:38 PM,75.2,68.0,78,30.01,9.0,West,8.1,-,0.10,Rain-Thunderstorm,Light Thunderstorms and Rain,280,2013-09-12 02:38:00
10:53 PM,75.0,68.0,79,30.04,9.0,WNW,6.9,-,0.13,Rain-Thunderstorm,Light Thunderstorms and Rain,300,2013-09-12 02:53:00
11:11 PM,75.2,68.0,78,29.99,10.0,NNW,6.9,-,0.01,Rain,Light Rain,330,2013-09-12 03:11:00
11:53 PM,73.9,68.0,82,29.95,10.0,East,3.5,-,0.01,,Partly Cloudy,100,2013-09-12 03:53:00